Location: Augustenthal
(51.7167°N, 10.2833°E)
Time: 09:38:18
(UTC+00:00)

Cosmos 1455 Rocket - Pass Details

Date: 02 October 2021
Orbit: 606 x 628 km, 82.5° (Epoch: 24 October)

Event Time Altitude Azimuth Distance (km) Brightness Sun altitude
Exits shadow 20:55:10 18° 345° (NNW) 1,526 5.6 -34.8°
Drops below altitude 10° 20:56:31 10° 356° (N) 1,994 6.2 -34.9°
Sets 20:58:56 0° 5° (N) 2,909 7.0 -35.2°
